EW4052 Weather Reports


time (UTC)temp
C
wind
direction
speed
KPH
gust
KPH
rain 1hr
cm
rain 24hr
cm
rain mn
cm
humidity
%
barometer
mb
20260831010050 22 320 0.0 0.0 0.00 1.07 1.07 100 1007.8
20260831004543 22 360 0.0 0.0 0.00 1.07 1.07 100 1007.9
20260831003041 22 355 0.0 0.0 0.00 1.07 1.07 100 1008.0
20260831001536 23 201 0.0 0.0 0.00 1.07 1.07 100 1007.7
20260831000033 23 235 0.0 0.0 0.00 1.07 1.07 100 1007.7
20260830234536 23 134 0.0 0.0 0.00 1.07 1.07 100 1007.8
20260830233023 23 267 0.0 0.0 0.00 1.07 1.07 3 1007.7
20260830231519 24 242 0.0 0.0 0.00 1.07 1.07 23 1007.7
20260830230014 24 118 0.0 0.0 0.00 1.07 1.07 38 1007.3
20260830224509 25 261 0.0 0.0 0.00 1.07 1.07 47 1007.3
20260830223005 25 286 0.0 0.0 0.00 1.07 1.07 49 1007.2
20260830221500 24 273 0.0 0.0 0.00 1.07 1.07 47 1007.1
20260830220058 25 355 0.0 0.0 0.00 1.07 1.07 54 1007.2
20260830214610 25 28 0.0 0.0 0.00 1.07 1.07 56 1007.2
20260830213047 25 254 0.0 0.0 0.00 1.07 1.07 63 1007.2
20260830211543 25 87 0.0 0.0 0.00 1.07 1.07 59 1007.4
20260830210039 26 246 0.0 0.0 0.00 1.07 1.07 60 1007.3
20260830204535 26 217 0.0 0.0 0.00 1.07 1.07 56 1007.1
20260830203030 25 355 0.0 0.0 0.00 1.07 1.07 56 1007.4
20260830201525 25 307 0.0 0.0 0.00 1.07 1.07 44 1007.8
20260830200039 24 309 0.0 0.0 0.00 1.07 1.07 38 1007.6
20260830194517 23 332 0.0 0.0 0.05 1.07 1.07 100 1007.7
20260830193012 22 181 0.0 0.0 0.05 1.07 1.07 100 1007.9
20260830191507 22 348 0.0 0.0 0.05 1.07 1.07 100 1008.0
20260830190013 22 313 0.0 0.0 0.05 1.07 1.07 100 1008.3
20260830184614 22 248 0.0 0.0 0.00 1.02 1.02 100 1008.3
20260830183103 23 60 0.0 0.0 0.00 1.02 1.02 28 1007.9
20260830181550 23 250 0.0 0.0 0.00 1.02 1.02 100 1008.0
20260830180045 23 23 0.0 0.0 0.00 1.02 1.02 13 1007.9
20260830174555 23 312 0.0 0.0 0.00 1.02 1.02 100 1007.9
20260830173037 22 271 0.0 0.0 0.00 1.02 1.02 100 1007.9
20260830171533 21 337 0.0 0.0 0.00 1.02 1.02 100 1007.9
20260830170028 20 167 0.0 0.0 0.00 1.02 1.02 100 1007.9
20260830164524 20 273 0.0 0.0 0.15 1.02 1.02 100 1007.9
20260830163021 20 257 0.0 0.0 0.66 1.02 1.02 100 1008.2
20260830161514 20 142 0.0 0.0 0.81 1.02 1.02 100 1008.0
20260830160010 20 109 0.0 0.0 0.81 1.02 1.02 100 1008.4
20260830154506 20 169 0.0 0.0 0.79 0.79 0.79 100 1008.6
20260830153001 21 172 0.0 0.0 0.33 0.33 0.33 100 1008.5
20260830151557 21 206 0.0 0.0 0.20 0.20 0.20 100 1008.6
20260830150056 22 249 0.0 0.0 0.20 0.20 0.20 25 1008.2
20260830144548 23 159 0.0 0.0 0.00 0.00 0.00 53 1007.2
20260830143045 23 214 0.0 0.0 0.00 0.00 0.00 48 1007.4
20260830141542 22 22 0.0 0.0 0.00 0.00 0.00 28 1007.3
20260830140034 22 76 0.0 0.0 0.00 0.00 0.00 24 1007.3
20260830134540 22 82 0.0 0.0 0.00 0.00 0.00 20 1007.1
20260830133025 21 82 0.0 0.0 0.00 0.00 0.00 11 1007.2
20260830131524 21 82 0.0 0.0 0.00 0.00 0.00 5 1007.2
20260830130017 21 65 0.0 0.0 0.00 0.00 0.00 5 1006.9
20260830124518 -17 38 0.0 0.0 0.00 0.00 0.00 1007.3
20260830123007 -17 309 0.0 0.0 0.00 0.00 0.00 1007.2
20260830121503 -17 5 0.0 0.0 0.00 0.00 0.00 1007.2
20260830114556 -17 24 0.0 0.0 0.00 0.00 0.00 1007.3
20260830113052 -17 24 0.0 0.0 0.00 0.00 0.00 1007.1
20260830111546 -17 24 0.0 0.0 0.00 0.00 0.00 1007.3
20260830110043 -17 24 0.0 0.0 0.00 0.00 0.00 1007.3
20260830104601 20 24 0.0 0.0 0.00 0.05 0.00 100 1007.4
20260830103036 20 42 0.0 0.0 0.00 0.05 0.00 100 1007.3
20260830101532 19 42 0.0 0.0 0.00 0.05 0.00 100 1007.4
20260830100028 18 42 0.0 0.0 0.00 0.05 0.00 100 1007.3
20260830094527 18 42 0.0 0.0 0.00 0.08 0.00 100 1007.7
20260830093030 18 42 0.0 0.0 0.00 0.08 0.00 100 1007.6
20260830091514 18 42 0.0 0.0 0.00 0.08 0.00 100 1007.5
20260830090009 18 42 0.0 0.0 0.00 0.08 0.00 100 1007.5
20260830084506 18 42 0.0 0.0 0.00 0.08 0.00 100 1007.6
20260830083107 18 42 0.0 0.0 0.00 0.08 0.00 100 1007.6
20260830081557 18 42 0.0 0.0 0.00 0.08 0.00 100 1007.5
20260830080051 18 42 0.0 0.0 0.00 0.08 0.00 100 1007.6
20260830074548 18 42 0.0 0.0 0.00 0.08 0.00 100 1007.6
20260830073044 18 35 0.0 0.0 0.00 0.08 0.00 100 1007.7
20260830071542 18 22 0.0 0.0 0.00 0.08 0.00 100 1007.7
20260830070035 18 22 0.0 0.0 0.00 0.08 0.00 100 1007.8
20260830064535 19 22 0.0 0.0 0.00 0.08 0.00 100 1007.9
20260830063028 19 22 0.0 0.0 0.00 0.08 0.00 100 1008.2
20260830061530 19 16 0.0 0.0 0.00 0.08 0.00 100 1008.3
20260830060025 19 16 0.0 0.0 0.00 0.08 0.00 100 1008.5
20260830054514 19 16 0.0 0.0 0.00 0.08 0.00 100 1008.6
20260830053022 19 16 0.0 0.0 0.00 0.08 0.00 100 1008.7
20260830051514 20 16 0.0 0.0 0.00 0.08 0.00 100 1008.5
20260830050001 20 16 0.0 0.0 0.00 0.08 0.00 100 1008.7
20260830044557 19 15 0.0 0.0 0.00 0.08 0.08 100 1008.7
20260830043051 19 15 0.0 0.0 0.00 0.08 0.08 100 1008.7
20260830041555 20 15 0.0 0.0 0.00 0.08 0.08 100 1008.7
20260830040046 20 15 0.0 0.0 0.00 0.08 0.08 100 1009.0
20260830034545 20 15 0.0 0.0 0.00 0.08 0.08 100 1008.9
20260830033037 20 16 0.0 0.0 0.00 0.08 0.08 100 1009.0
20260830031529 20 16 0.0 0.0 0.00 0.08 0.08 100 1008.9
20260830030026 20 16 0.0 0.0 0.00 0.08 0.08 100 1009.0
20260830024521 20 15 0.0 0.0 0.00 0.08 0.08 100 1008.9
20260830023019 20 344 0.0 0.0 0.00 0.08 0.08 100 1008.7
20260830021512 20 344 0.0 0.0 0.00 0.08 0.08 100 1008.6
20260830020007 21 344 0.0 0.0 0.00 0.08 0.08 100 1008.4
20260830014503 21 338 0.0 0.0 0.00 0.08 0.08 100 1008.1
20260830013110 21 265 0.0 0.0 0.00 0.08 0.08 9 1007.9
20260830011606 21 265 0.0 0.0 0.00 0.08 0.08 20 1007.8